Theta_e
306 307 308 308 309 309 309 309 309 309 310 311 312 312 312 313 314 314 315 317 314 315 314 314 315 318 318 320 322 326 328 327 322 326 334 335 336 336 337 337 337 335 335
305 306 307 308 308 307 307 308 309 309 309 310 311 312 312 312 312 312 312 312 312 312 311 312 312 315 315 320 322 323 323 322 322 320 325 326 331 334 334 332 337 337 336
305 306 307 306 306 306 306 307 307 308 309 309 310 311 310 311 311 312 312 311 311 311 311 311 312 313 314 314 319 320 322 323 320 320 319 327 330 330 326 329 331 331 336
305 306 307 307 306 306 307 307 307 309 309 310 311 310 310 310 310 311 311 311 311 311 311 311 312 312 314 315 316 318 319 319 321 320 319 320 323 324 324 322 321 329 329
307 308 307 308 308 308 307 308 308 309 310 310 309 309 310 309 310 310 310 310 310 310 311 312 312 315 314 314 316 317 318 319 319 318 317 317 317 317 314 316 320 323 326
308 308 310 310 309 309 308 308 308 308 307 307 308 308 307 307 305 305 308 309 309 309 310 311 311 312 310 310 311 312 314 316 316 315 314 313 314 313 313 312 316 318 316
311 310 310 309 308 307 307 307 306 306 306 307 307 306 306 306 303 301 303 308 308 308 309 310 309 309 306 307 309 309 310 308 309 316 314 312 310 313 311 308 311 313 315
307 307 307 306 305 305 306 306 307 306 305 304 305 304 305 306 300 299 302 307 307 308 309 308 307 307 303 301 307 307 308 309 310 310 312 310 310 311 311 310 310 310 313
306 305 305 304 304 304 304 303 304 303 303 303 303 303 304 302 298 298 302 305 305 305 307 306 305 305 300 298 304 304 305 306 306 304 303 302 301 300 303 308 308 306 305
303 304 304 303 302 302 301 300 301 302 301 302 301 301 302 302 298 297 299 302 301 301 303 305 303 302 298 297 300 300 300 304 304 305 306 306 305 307 304 309 309 306 306
304 303 302 300 300 301 300 299 299 299 300 300 300 300 301 301 300 297 296 299 299 299 300 300 302 299 297 296 296 300 300 301 302 302 303 304 306 308 309 311 312 310 309
302 301 299 298 299 299 298 299 299 298 298 298 298 299 299 300 298 297 296 296 297 297 298 299 299 295 294 295 296 296 295 297 301 301 303 304 306 307 309 311 313 313 313
299 298 297 297 297 297 297 298 298 298 297 297 298 297 298 299 299 297 295 295 297 298 299 298 296 295 294 297 298 298 299 303 303 302 302 303 305 308 310 311 313 315 314
297 296 296 295 296 296 297 297 298 298 299 298 297 297 297 299 299 297 297 298 297 298 298 298 298 298 297 299 300 301 301 302 301 300 300 302 305 306 306 308 309 310 310
296 296 295 295 295 296 298 298 300 301 298 298 297 295 294 294 296 294 293 296 296 295 294 299 299 298 297 297 298 299 301 301 300 300 299 300 301 302 303 305 306 306 305
295 295 294 294 295 298 297 297 296 294 294 293 292 293 295 293 292 292 292 291 292 291 297 296 296 296 295 296 295 296 298 298 299 299 299 299 299 300 300 302 302 302 302
295 294 294 294 294 294 294 294 292 295 294 293 292 292 292 291 291 291 291 292 292 295 296 296 296 296 295 293 293 294 293 295 296 298 298 298 298 299 298 298 299 299 299
295 294 295 294 294 294 294 294 293 292 291 292 293 292 292 291 291 292 291 294 297 297 297 296 296 295 294 292 292 291 291 292 292 294 294 297 297 297 297 297 297 296 297
295 295 295 295 295 295 294 293 293 292 291 292 293 293 293 292 291 292 292 296 296 296 295 294 295 294 292 292 291 291 291 291 292 293 294 295 295 296 295 295 295 290 291
295 293 293 294 294 295 294 294 293 292 292 292 293 294 295 294 294 295 296 296 296 296 295 294 293 292 291 290 289 289 289 289 290 291 291 293 294 294 293 294 295 294 295
294 294 287 293 294 295 295 294 294 293 292 292 292 293 286 292 292 293 293 294 295 296 294 293 291 290 289 289 289 288 288 288 289 289 290 290 292 292 294 295 294 294 294
293 293 293 294 295 294 293 294 294 293 292 292 292 291 285 291 291 291 292 293 295 294 294 292 291 290 289 288 287 287 287 287 288 288 288 289 291 291 292 292 293 293 293
293 294 293 293 292 289 292 292 292 292 292 291 291 290 289 290 290 290 290 291 292 294 294 292 291 290 290 289 288 288 287 287 287 287 286 288 290 291 292 292 292 292 293
293 292 291 292 291 290 290 290 291 287 289 290 289 289 289 289 288 288 288 289 290 291 291 290 289 289 289 288 287 287 288 287 287 287 287 287 288 289 291 292 291 292 292
294 292 291 291 291 290 290 290 290 290 289 289 288 288 288 287 287 287 287 287 288 288 288 289 289 288 288 287 287 287 286 284 285 284 287 288 289 291 292 292 292 293 292
293 292 292 291 291 290 290 290 290 290 289 289 288 288 288 286 286 286 285 286 286 286 287 287 287 287 287 287 286 284 284 283 284 283 285 289 291 291 291 291 291 292 291
Wind_Speed
3 2 1 1 1 2 2 2 3 4 5 5 6 6 6 7 7 6 7 7 7 6 5 5 6 5 5 5 4 1 3 3 4 5 3 4 3 5 6 5 5 8 8
4 3 3 4 2 3 4 4 3 4 4 4 5 6 7 7 6 6 7 6 6 8 8 8 7 6 5 6 4 4 2 2 1 5 3 3 2 4 4 5 5 7 7
4 4 4 5 4 5 5 5 4 4 4 4 4 5 6 8 8 6 6 7 6 6 6 7 8 8 8 6 6 5 4 1 2 1 3 1 2 4 5 3 4 4 4
5 5 6 5 5 6 6 5 4 4 4 4 4 5 6 7 6 5 7 7 7 6 5 5 6 7 7 8 6 7 4 3 1 2 2 0 1 3 4 7 8 4 6
6 5 7 5 6 6 4 3 4 3 2 4 4 5 6 6 6 6 7 7 7 7 6 6 6 9 12 8 4 5 5 3 2 3 2 2 1 2 5 5 6 5 3
5 6 6 4 3 4 4 3 2 3 4 4 5 5 7 6 11 11 8 7 7 5 5 7 6 7 10 12 10 5 1 4 4 3 1 4 5 4 2 3 6 4 3
3 5 6 5 6 8 4 4 3 3 3 5 6 6 8 8 10 12 11 5 5 5 5 5 4 3 7 8 8 8 8 6 4 2 3 3 4 3 4 5 5 6 5
7 6 7 7 6 5 4 5 4 3 3 4 6 7 6 5 12 12 10 6 5 5 4 4 3 2 5 7 7 5 5 4 4 3 4 6 7 8 6 6 7 8 9
5 4 6 4 6 4 5 6 5 3 3 3 5 6 5 5 11 13 10 6 6 6 6 4 4 3 6 8 7 7 6 5 4 7 8 11 11 10 9 5 7 6 7
4 4 5 5 6 6 6 6 4 4 5 4 4 4 6 4 6 9 10 6 7 6 6 5 5 5 8 9 7 7 9 8 8 10 9 8 6 8 8 8 7 7 6
3 4 4 4 4 4 5 3 4 4 3 4 5 5 5 5 5 8 9 6 6 7 7 7 6 9 11 11 8 7 8 9 11 8 8 8 8 8 6 5 6 6 6
3 4 5 5 5 5 5 5 3 3 4 4 5 5 3 5 5 6 9 7 9 5 7 7 8 15 14 12 8 9 11 9 5 6 6 6 7 7 5 5 6 7 7
4 4 5 5 5 5 4 5 3 4 3 5 4 4 4 3 3 9 10 11 10 6 5 8 13 11 11 7 8 10 5 3 2 3 4 5 6 7 8 7 6 6 7
4 4 4 5 7 5 4 3 3 2 4 5 6 6 6 5 5 5 7 7 8 6 8 6 8 8 8 6 6 5 4 4 4 4 5 6 6 7 6 6 3 4 3
3 4 4 4 5 5 4 3 3 3 2 3 4 4 6 7 7 9 8 7 5 6 6 3 4 6 6 6 6 6 5 4 5 4 4 5 5 6 6 6 5 5 4
3 3 4 4 4 4 5 5 6 6 2 2 3 2 4 8 11 11 10 10 8 6 2 3 4 5 6 6 7 8 7 8 6 5 5 5 5 5 6 5 4 5 6
2 3 2 3 4 4 4 4 6 6 5 8 8 7 8 9 11 11 6 7 6 5 3 4 5 5 6 7 6 7 7 8 9 7 6 5 5 4 5 5 5 5 6
2 3 2 3 3 3 3 4 4 5 7 7 6 6 8 10 10 11 10 2 3 2 2 4 5 5 5 5 6 7 6 7 6 6 6 6 5 5 5 5 5 6 6
2 2 3 4 3 3 2 2 3 4 5 5 6 7 7 11 9 7 7 4 4 4 4 4 4 5 6 6 6 6 7 6 6 6 6 6 6 5 5 4 5 6 6
3 6 5 4 4 3 1 2 2 3 4 4 4 4 6 6 7 6 4 4 3 3 3 4 5 5 6 6 6 6 7 6 6 6 7 6 6 5 5 6 5 6 6
3 4 4 3 2 2 1 1 0 0 2 2 4 6 7 4 6 5 6 5 5 4 4 4 5 5 5 6 6 7 7 7 7 7 7 6 6 6 6 6 7 7 8
3 3 2 2 2 3 3 1 1 0 2 3 4 5 7 5 5 6 6 6 5 5 4 4 4 5 5 6 6 7 8 8 8 8 8 8 7 7 7 7 8 8 8
3 3 2 2 2 3 3 3 2 1 3 3 3 4 4 4 5 5 5 5 5 5 5 5 5 6 6 6 6 6 7 8 8 8 8 9 8 8 8 9 9 10 9
2 2 2 1 1 2 3 4 2 2 2 2 2 3 3 4 4 5 5 5 5 5 5 6 6 8 8 8 7 7 7 8 8 7 9 7 8 9 8 9 10 11 10
1 1 1 1 1 1 1 2 1 2 2 2 2 2 3 4 4 5 5 5 5 6 7 6 6 9 10 13 12 14 12 11 10 9 7 8 10 12 10 9 11 11 12
1 2 2 2 2 2 1 1 1 2 2 2 2 2 3 3 3 4 4 5 5 6 7 6 8 11 12 10 12 14 12 13 12 12 9 7 9 9 9 11 13 10 12
Wind_Direction
210 207 272 333 333 326 329 329 342 333 355 357 350 352 359 358 356 3 354 356 351 345 346 338 341 341 344 349 321 352 3 2 311 302 274 323 303 290 272 255 230 229 233
226 221 246 268 273 299 299 302 315 331 333 340 343 344 346 345 342 344 343 340 344 343 344 347 341 335 319 318 315 344 62 17 348 317 306 323 316 336 336 299 265 237 237
260 261 274 273 275 267 270 279 294 312 321 324 333 339 332 332 331 331 332 327 324 328 335 335 333 339 329 321 320 329 315 152 119 280 289 305 316 358 338 328 330 295 275
257 261 270 269 268 264 263 260 281 299 310 321 329 322 315 319 314 324 327 325 321 313 319 327 333 334 327 321 312 311 314 328 232 132 251 285 314 349 335 349 340 331 310
262 266 267 278 270 270 272 286 296 303 304 317 315 315 310 316 308 322 318 311 307 303 321 334 345 343 344 343 320 321 324 337 15 330 9 347 28 6 7 338 311 313 331
278 276 287 320 17 40 34 74 57 344 329 310 296 297 305 310 306 313 317 304 306 300 320 330 339 349 345 341 345 341 282 343 334 341 360 325 341 314 334 325 318 322 327
30 35 28 22 7 28 1 23 2 322 313 306 303 318 311 312 324 326 329 323 322 327 312 310 317 360 351 347 358 11 29 44 51 346 359 346 311 298 323 307 305 302 287
65 49 47 13 14 3 303 331 326 301 298 303 305 317 317 334 349 349 344 352 352 342 325 318 308 331 10 346 337 357 359 347 6 345 310 291 277 286 271 273 287 284 273
52 49 43 3 315 311 333 337 327 311 318 308 320 335 351 359 3 9 358 1 354 353 344 350 345 339 345 346 334 329 317 304 305 289 278 277 278 269 256 289 277 284 288
61 49 40 6 330 339 330 325 314 322 312 331 351 357 346 331 5 13 6 348 339 332 320 315 283 302 329 333 320 312 304 302 317 318 316 306 292 292 243 229 267 268 275
26 37 41 11 336 342 328 337 339 342 4 4 342 344 336 336 336 357 357 346 336 320 314 320 323 330 326 314 290 287 273 295 300 297 297 300 307 303 297 256 235 236 254
48 45 21 5 3 356 353 353 359 359 348 333 324 325 333 336 346 340 343 339 336 317 314 319 317 323 311 303 304 282 274 276 275 283 293 307 309 301 303 300 281 261 250
44 26 8 359 355 348 340 339 323 337 333 318 324 325 334 348 334 338 331 326 322 324 308 309 303 303 304 312 327 332 336 10 360 350 343 334 325 317 300 293 284 271 262
25 12 360 355 344 347 339 321 298 305 356 2 355 349 343 341 337 338 326 331 321 328 337 320 308 309 297 305 336 342 348 1 351 347 338 329 331 348 351 351 321 331 304
30 6 0 352 348 335 334 324 341 346 317 344 351 338 340 330 318 311 306 312 321 336 330 327 356 2 1 0 359 353 342 353 353 350 339 340 341 345 350 349 350 345 334
24 5 349 339 337 343 349 345 352 5 347 315 310 300 317 276 296 311 312 303 325 347 336 360 2 356 353 348 350 344 346 349 343 337 336 332 326 327 335 341 350 355 340
25 345 334 342 351 353 354 1 345 339 325 327 313 309 318 309 328 333 317 321 343 2 1 10 4 358 2 1 352 342 339 336 333 337 328 324 329 331 339 340 342 337 326
342 310 295 319 317 325 336 343 353 356 350 346 329 336 330 341 341 351 344 339 8 6 353 4 7 5 3 356 346 345 336 332 338 321 322 316 332 320 323 323 322 318 312
325 303 304 297 289 290 318 337 14 18 5 353 341 348 338 331 315 335 359 21 350 358 360 359 7 5 357 352 344 336 329 324 324 326 323 325 319 315 307 303 299 292 295
308 289 285 299 298 301 326 349 26 29 21 358 347 353 341 340 358 352 349 343 356 9 20 25 12 5 356 349 344 341 337 338 336 334 328 320 319 305 292 288 287 291 287
307 310 308 302 311 319 281 290 106 101 331 328 320 327 331 343 355 359 356 357 359 28 37 25 12 360 350 345 347 344 342 337 331 326 325 320 311 306 308 303 298 292 283
310 315 339 360 341 356 344 325 8 34 327 325 331 336 343 16 11 10 12 24 36 38 29 15 1 354 347 346 345 343 340 337 334 335 331 316 312 319 320 307 300 299 293
313 330 2 350 17 5 14 11 335 347 343 340 349 355 0 4 1 4 6 7 6 4 1 360 357 349 348 343 340 334 331 333 330 324 311 317 319 315 314 309 307 301 302
301 334 358 21 360 6 8 5 21 34 54 38 12 8 358 355 354 353 355 352 354 354 358 359 356 349 344 346 342 339 336 336 324 314 314 307 305 305 306 307 305 293 289
270 298 325 334 257 312 356 23 14 348 348 352 354 352 347 349 355 358 355 354 355 357 355 352 350 347 348 345 345 342 334 323 326 325 320 305 304 312 310 313 311 307 300
273 271 289 292 230 225 250 286 305 306 323 324 333 340 341 348 351 355 355 356 355 355 352 349 347 349 346 344 340 332 328 331 333 329 323 314 324 323 322 318 314 312 308